Flag for Egypt Weather past 2 weeks in Al Jizah, Egypt

Now
82 °F

Clear.


Feels Like: 82 °F
Forecast: 67 / 80 °F
Wind: 2 mph from Southeast

Location: Cairo Airport

Current Time: Mar 27, 2015 at 10:12:46 PM

Latest Report: Mar 27, 2015 at 9:30 PM


Visibility: 10 mi

Pressure: 29.68 "Hg

Humidity: 40%

Dew point: 55 °F

Location of Al JizahLocation

Historic Weather in Al Jizah — Graph

°F

Al Jizah temperature yesterday

Maximum temperature yesterday: 82 °F (at 2:00 PM)
Minimum temperature yesterday: 59 °F (at 6:00 AM)
Average temperature yesterday: 71 °F

Past Weeks' High & Low Weather Summary

 TemperatureHumidityPressure
High95 °F (Mar 27, 3:00 PM)94% (Mar 15, 6:30 AM)30.21 "Hg (Mar 15, 6:30 AM)
Low48 °F (Mar 22, 6:30 AM)15% (Mar 23, 1:30 PM)29.68 "Hg (Mar 27, 2:30 PM)
Average64 °F52%30.04 "Hg
* Reported Mar 12 9:00 PM — Mar 27 9:00 PM, Al Jizah, Weather by CustomWeather, © 2015

Note: Actual official high and low records may vary slightly from our data, if they occured in-between our weather recording intervals... More about our weather records

Advertising

Al Jizah weather history for previous 24 hours

 ConditionsComfort  
Time TempWeatherWind HumidityBarometerVisibility
9:00 PM
Fri, Mar 27
82 °FClear.2 mph40%29.68 "Hg10 mi
8:30 PM84 °FClear.5 mph37%29.71 "Hg10 mi
8:00 PM84 °FClear.5 mph37%29.71 "Hg10 mi
7:30 PM86 °FClear.6 mph33%29.68 "Hg10 mi
7:00 PM86 °FClear.6 mph33%29.68 "Hg10 mi
6:30 PM86 °FClear.3 mph33%29.71 "Hg4 mi
6:00 PM90 °FClear.3 mph27%29.68 "Hg4 mi
5:30 PM90 °FClear.6 mph31%29.68 "Hg4 mi
5:00 PM90 °FClear.6 mph31%29.68 "Hg4 mi
4:30 PM90 °FClear.6 mph33%29.68 "Hg4 mi
4:00 PM91 °FClear.6 mph30%29.68 "Hg4 mi
3:30 PM95 °FHaze.5 mph20%29.68 "Hg2 mi
3:00 PM95 °FHaze.3 mph20%29.68 "Hg2 mi
2:30 PM93 °FHaze.5 mph24%29.68 "Hg2 mi
2:00 PM93 °FHaze.5 mph26%29.71 "Hg2 mi
1:30 PM91 °FHaze.5 mph23%29.71 "Hg2 mi
1:00 PM91 °FHaze.3 mph20%29.74 "Hg2 mi
12:30 PM91 °FHaze.3 mph20%29.74 "Hg2 mi
12:00 PM91 °FHaze.No wind17%29.77 "Hg2 mi
11:30 AM90 °FHaze.2 mph17%29.77 "Hg2 mi
11:00 AM86 °FHaze.No wind19%29.80 "Hg2 mi
10:30 AM86 °FHaze.No wind20%29.80 "Hg2 mi
10:00 AM86 °FHaze.5 mph22%29.83 "Hg2 mi
9:30 AM86 °FHaze.No wind20%29.83 "Hg2 mi
9:00 AM82 °FHaze.No wind21%29.83 "Hg2 mi
8:30 AM81 °FHaze.No wind28%29.83 "Hg2 mi
8:00 AM75 °FHaze.No wind34%29.83 "Hg2 mi
7:30 AM73 °FHaze.No wind38%29.83 "Hg2 mi
7:00 AM77 °FClear.No wind26%29.83 "Hg4 mi
6:30 AM79 °FClear.6 mph18%29.83 "Hg4 mi
6:00 AM75 °FSunny.No wind21%29.80 "Hg10 mi
5:00 AM79 °FClear.10 mph20%29.83 "Hg10 mi
4:30 AM79 °FClear.12 mph20%29.83 "Hg10 mi
4:00 AM79 °FClear.12 mph20%29.83 "Hg10 mi
3:30 AM73 °FClear.7 mph22%29.83 "Hg10 mi
3:00 AM70 °FClear.No wind29%29.83 "Hg10 mi
2:30 AM68 °FClear.3 mph43%29.86 "Hg10 mi
2:00 AM66 °FClear.3 mph56%29.92 "Hg10 mi
1:30 AM66 °FClear.6 mph52%29.92 "Hg10 mi
1:00 AM68 °FClear.6 mph49%29.92 "Hg10 mi
12:30 AM68 °FClear.5 mph46%29.92 "Hg10 mi
12:00 AM70 °FClear.5 mph43%29.95 "Hg10 mi
11:30 PM
Thu, Mar 26
70 °FClear.5 mph43%29.95 "Hg10 mi
11:00 PM70 °FClear.5 mph46%29.95 "Hg10 mi
10:30 PM70 °FClear.10 mph43%29.95 "Hg10 mi
10:00 PM72 °FClear.10 mph41%29.98 "Hg10 mi
Weather by CustomWeather, © 2015

See weather overviewHow to use our weather pages